Erie, PA

3:12 PM EDT on September 27, 2016 (GMT -0400)
Erie International

Weather History for KERI - August, 2014

Change the Weather History Date:

Friday, August 15, 2014

  Actual Average Record
Temperature  
Mean Temperature 60 °F 71 °F  
Max Temperature 69 °F 79 °F 92 °F (1959)
Min Temperature 51 °F 63 °F 50 °F (1968)
Degree Days  
Heating Degree Days 5 0  
Month to date heating degree days 11 0  
Since 1 June heating degree days 46 68  
Since 1 July heating degree days 16 7  
Cooling Degree Days 0 6  
Month to date cooling degree days 69 98  
Year to date cooling degree days 418 473  
Since 1 June cooling degree days 379 434  
Growing Degree Days 10 (Base 50)    
Moisture  
Dew Point 47 °F    
Average Humidity 65    
Maximum Humidity 83    
Minimum Humidity 47    
Precipitation  
Precipitation 0.00 in 0.11 in 0.73 in (1981)
Month to date precipitation 1.87 1.72  
Year to date precipitation 26.26 24.08  
Snow  
Snow 0.00 in 0.00 in - ()
Month to date snowfall 0.0 0.0  
Since 1 June snowfall 0.0 0.0  
Since 1 July snowfall 0.0 0.0  
Snow Depth 0.00 in    
Sea Level Pressure  
Sea Level Pressure 29.99 in    
Wind  
Wind Speed 9 mph (WSW)    
Max Wind Speed 17 mph    
Max Gust Speed 24 mph    
Visibility 10 miles    
Events      
T = Trace of Precipitation, MM = Missing Value Source: NWS Daily Summary

Daily Weather History Graph

Daily Weather History Graph

Search for Another Location

Airport or City:

Trip Planner

Search our weather history database for the weather conditions in past years. The results will help you decide how hot, cold, wet, or windy it might be!

Date:

Astronomy

Aug. 15, 2014 Rise Set
Actual Time 6:28 AM EDT 8:21 PM EDT
Civil Twilight 5:58 AM EDT 8:51 PM EDT
Nautical Twilight 5:21 AM EDT 9:27 PM EDT
Astronomical Twilight 4:41 AM EDT 10:07 PM EDT
Moon 11:15 PM EDT (8/15) 12:16 PM EDT (8/15)
Length of Visible Light 14h 52m
Length of Day
13h 52m
Waning Gibbous, 69% of the Moon is Illuminated
Aug 15
Waning Gibbous
Aug 17
Last Quarter
Aug 25
New
Sep 2
First Quarter
Sep 8
Full

Hourly Weather History & Observations

Time (EDT) Temp. Dew Point Humidity Pressure Visibility Wind Dir Wind Speed Gust Speed Precip Events Conditions
12:51 AM 62.1 °F 46.0 °F 56% 29.97 in 10.0 mi North 9.2 mph - N/A   Overcast
1:51 AM 61.0 °F 45.0 °F 56% 29.97 in 10.0 mi North 8.1 mph - N/A   Mostly Cloudy
2:51 AM 60.8 °F 44.6 °F 55% 29.97 in 10.0 mi North 4.6 mph - N/A   Clear
3:51 AM 61.0 °F 43.0 °F 52% 29.96 in 10.0 mi North 4.6 mph - N/A   Clear
4:51 AM 52.0 °F 46.0 °F 80% 29.98 in 10.0 mi South 5.8 mph - N/A   Clear
5:51 AM 51.1 °F 46.0 °F 83% 29.98 in 10.0 mi South 6.9 mph - N/A   Clear
6:51 AM 52.0 °F 46.0 °F 80% 29.99 in 10.0 mi South 8.1 mph - N/A   Clear
7:51 AM 55.0 °F 46.9 °F 74% 30.00 in 10.0 mi SSW 5.8 mph - N/A   Overcast
8:51 AM 61.0 °F 48.0 °F 62% 30.01 in 10.0 mi SW 9.2 mph - N/A   Clear
9:51 AM 64.4 °F 48.2 °F 56% 30.01 in 10.0 mi SW 6.9 mph - N/A   Mostly Cloudy
10:51 AM 66.2 °F 48.2 °F 52% 30.01 in 10.0 mi West 9.2 mph - N/A   Overcast
11:51 AM 66.0 °F 51.1 °F 59% 30.01 in 10.0 mi West 11.5 mph 19.6 mph N/A   Overcast
12:51 PM 66.9 °F 46.9 °F 49% 30.02 in 10.0 mi West 12.7 mph 20.7 mph N/A   Clear
1:51 PM 66.2 °F 48.2 °F 52% 30.02 in 10.0 mi WSW 13.8 mph 18.4 mph N/A   Clear
2:51 PM 68.0 °F 48.0 °F 49% 30.01 in 10.0 mi WSW 15.0 mph 20.7 mph N/A   Clear
3:51 PM 68.0 °F 50.0 °F 52% 30.00 in 10.0 mi West 10.4 mph 18.4 mph N/A   Clear
4:51 PM 69.8 °F 48.2 °F 46% 30.00 in 10.0 mi West 16.1 mph 20.7 mph N/A   Clear
5:51 PM 68.0 °F 50.0 °F 52% 29.99 in 10.0 mi SW 10.4 mph - N/A   Clear
6:51 PM 66.9 °F 48.0 °F 51% 29.99 in 10.0 mi West 11.5 mph - N/A   Clear
7:51 PM 64.9 °F 48.9 °F 56% 29.99 in 10.0 mi SW 6.9 mph - N/A   Clear
8:51 PM 61.0 °F 48.0 °F 62% 29.99 in 10.0 mi SSW 4.6 mph - N/A   Clear
9:51 PM 59.0 °F 46.9 °F 64% 29.99 in 10.0 mi South 6.9 mph - N/A   Clear
10:51 PM 57.2 °F 46.4 °F 67% 30.00 in 10.0 mi South 5.8 mph - N/A   Clear
11:51 PM 55.4 °F 46.4 °F 72% 29.99 in 10.0 mi South 4.6 mph - N/A   Clear